Date String (YYYY-MM-DD hh:mm:ss) UTC,Instrument flags,absolute air pressure of the measurement (hPa),sample flow rate (lpm),inlet stack bypass flow (lpm),air temperature of the measurement (°C),ambient temperature measured by the external sensor (°C),aerosol sample conditioner tube jacket temperature (°C),OPC LED temperature (°C),internal box temperature (°C),relative humidity of the measurement (%),span deviation,mass concentration of particles derived from Lorenz-Mie calculation of OPC scattering (μg/m³),mass concentration of particles derived from Lorenz-Mie calculation of OPC scattering (μg/m³),mass concentration of particles derived from Lorenz-Mie calculation of OPC scattering (μg/m³)
DateTimeUTC,F1_M11,P_M11,Q1_M11,Q2_M11,T1_M11,T2_M11,T3_M11,T4_M11,T5_M11,U1_M11,ZSPAN_M11,X0_M11,X2_M11,X1_M11
2023-10-05 23:00:00,SystemResetWarning,0835.3,5.00,000.00,028.2,024.7,000.0,036.7,029.7,16.8,0000.0,0010.56,0003.35,0002.68
2023-10-05 23:01:00,SystemResetWarning,0835.3,5.00,000.00,028.2,025.2,000.0,036.8,029.8,16.8,0000.0,0010.38,0003.38,0002.69
2023-10-05 23:02:00,SystemResetWarning,0835.2,5.00,000.00,028.2,025.6,000.0,036.7,029.9,16.9,0000.0,0010.06,0003.39,0002.71
2023-10-05 23:03:00,SystemResetWarning,0835.2,5.00,000.00,028.2,026.0,000.0,036.7,029.9,17.1,0000.0,0011.27,0003.42,0002.72
2023-10-05 23:04:00,SystemResetWarning,0835.2,5.00,000.00,028.3,026.4,000.0,036.7,030.0,17.1,0000.0,0011.32,0003.42,0002.73
2023-10-05 23:05:00,SystemResetWarning,0835.2,5.00,000.00,028.3,026.7,000.0,036.7,030.1,16.9,0000.0,0010.99,0003.40,0002.73
2023-10-05 23:06:00,SystemResetWarning,0835.2,5.00,000.00,028.4,026.9,000.0,036.8,030.1,16.8,0000.0,0011.37,0003.38,0002.72
2023-10-05 23:07:00,SystemResetWarning,0835.2,4.99,000.00,028.4,027.1,000.0,036.8,030.2,16.8,0000.0,0012.48,0003.38,0002.70
2023-10-05 23:08:00,SystemResetWarning,0835.2,5.00,000.00,028.4,027.3,000.0,036.8,030.3,16.7,0000.0,0012.61,0003.38,0002.70
2023-10-05 23:09:00,SystemResetWarning,0835.2,5.00,000.00,028.5,027.5,000.0,036.8,030.3,16.7,0000.0,0012.53,0003.41,0002.70
2023-10-05 23:10:00,SystemResetWarning,0835.2,5.00,000.00,028.5,027.6,000.0,036.8,030.4,16.6,0000.0,0012.00,0003.43,0002.70
2023-10-05 23:11:00,SystemResetWarning,0835.2,4.99,000.00,028.6,027.2,000.0,036.8,030.4,16.5,0000.0,0011.93,0003.45,0002.71
2023-10-05 23:12:00,SystemResetWarning,0835.3,4.99,000.00,028.5,025.5,000.0,036.8,030.2,16.5,0000.0,0011.82,0003.46,0002.71
2023-10-05 23:13:00,SystemResetWarning,0835.3,5.01,000.00,028.5,025.0,000.0,036.8,030.1,16.7,0000.0,0011.84,0003.48,0002.73
2023-10-05 23:14:00,SystemResetWarning,0835.3,5.01,000.00,028.4,025.2,000.0,036.8,029.9,16.7,0000.0,0010.78,0003.47,0002.76
2023-10-05 23:15:00,SystemResetWarning,0835.3,4.99,000.00,028.4,025.5,000.0,036.8,029.9,16.7,0000.0,0011.03,0003.48,0002.78
2023-10-05 23:16:00,SystemResetWarning,0835.3,5.00,000.00,028.4,025.9,000.0,036.8,030.0,16.8,0000.0,0011.54,0003.52,0002.81
2023-10-05 23:17:00,SystemResetWarning,0835.2,5.01,000.00,028.4,026.2,000.0,036.8,030.0,16.7,0000.0,0011.66,0003.55,0002.83
2023-10-05 23:18:00,SystemResetWarning,0835.2,5.00,000.00,028.4,026.5,000.0,036.8,030.1,16.8,0000.0,0010.22,0003.57,0002.85
2023-10-05 23:19:00,SystemResetWarning,0835.2,5.00,000.00,028.4,026.8,000.0,036.8,030.2,16.9,0000.0,0011.08,0003.65,0002.88
2023-10-05 23:20:00,SystemResetWarning,0835.2,5.00,000.00,028.5,027.0,000.0,036.8,030.2,17.0,0000.0,0011.00,0003.65,0002.89
2023-10-05 23:21:00,SystemResetWarning,0835.2,5.01,000.00,028.5,027.2,000.0,036.8,030.3,16.8,0000.0,0011.01,0003.65,0002.90
2023-10-05 23:22:00,SystemResetWarning,0835.2,5.00,000.00,028.5,027.4,000.0,036.9,030.4,16.5,0000.0,0011.31,0003.66,0002.89
2023-10-05 23:23:00,SystemResetWarning,0835.2,5.00,000.00,028.6,027.6,000.0,036.9,030.4,16.4,0000.0,0011.11,0003.62,0002.89
2023-10-05 23:24:00,SystemResetWarning,0835.2,4.99,000.00,028.6,026.9,000.0,036.9,030.4,16.4,0000.0,0011.50,0003.63,0002.92
2023-10-05 23:25:00,SystemResetWarning,0835.2,5.00,000.00,028.6,024.8,000.0,036.8,030.1,16.4,0000.0,0011.73,0003.64,0002.90
2023-10-05 23:26:00,SystemResetWarning,0835.2,5.00,000.00,028.5,024.0,000.0,036.8,029.9,16.5,0000.0,0011.74,0003.62,0002.88
2023-10-05 23:27:00,SystemResetWarning,0835.2,5.01,000.00,028.4,024.2,000.0,036.7,029.8,16.7,0000.0,0012.34,0003.59,0002.85
2023-10-05 23:28:00,SystemResetWarning,0835.2,5.01,000.00,028.3,024.6,000.0,036.7,029.7,16.9,0000.0,0012.88,0003.57,0002.82
2023-10-05 23:29:00,SystemResetWarning,0835.2,5.00,000.00,028.2,025.0,000.0,036.7,029.7,17.0,0000.0,0013.21,0003.55,0002.78
2023-10-05 23:30:00,SystemResetWarning,0835.2,5.00,000.00,028.2,025.5,000.0,036.7,029.8,16.9,0000.0,0012.16,0003.49,0002.77
2023-10-05 23:31:00,SystemResetWarning,0835.2,4.99,000.00,028.2,025.9,000.0,036.7,029.9,17.0,0000.0,0011.72,0003.46,0002.75
2023-10-05 23:32:00,SystemResetWarning,0835.3,5.00,000.00,028.2,026.3,000.0,036.7,030.0,17.0,0000.0,0011.80,0003.47,0002.74
2023-10-05 23:33:00,SystemResetWarning,0835.2,5.00,000.00,028.3,026.6,000.0,036.7,030.0,16.9,0000.0,0012.22,0003.48,0002.73
2023-10-05 23:34:00,SystemResetWarning,0835.3,5.01,000.00,028.3,026.8,000.0,036.7,030.1,16.9,0000.0,0013.09,0003.48,0002.70
2023-10-05 23:35:00,SystemResetWarning,0835.3,5.00,000.00,028.4,027.0,000.0,036.7,030.2,17.0,0000.0,0013.11,0003.47,0002.65
2023-10-05 23:36:00,SystemResetWarning,0835.3,5.00,000.00,028.4,027.2,000.0,036.8,030.2,17.0,0000.0,0013.30,0003.47,0002.64
2023-10-05 23:37:00,SystemResetWarning,0835.3,4.99,000.00,028.5,027.4,000.0,036.8,030.3,16.9,0000.0,0013.02,0003.51,0002.62
2023-10-05 23:38:00,SystemResetWarning,0835.4,5.00,000.00,028.5,027.5,000.0,036.8,030.3,16.7,0000.0,0011.94,0003.52,0002.61
2023-10-05 23:39:00,SystemResetWarning,0835.4,5.00,000.00,028.6,027.6,000.0,036.8,030.4,16.6,0000.0,0011.71,0003.52,0002.60
2023-10-05 23:40:00,SystemResetWarning,0835.4,5.00,000.00,028.6,027.7,000.0,036.9,030.5,16.6,0000.0,0011.93,0003.53,0002.61
2023-10-05 23:41:00,SystemResetWarning,0835.4,5.00,000.00,028.7,027.7,000.0,036.9,030.5,16.6,0000.0,0012.06,0003.56,0002.60
2023-10-05 23:42:00,SystemResetWarning,0835.4,4.99,000.00,028.7,026.3,000.0,036.9,030.4,16.6,0000.0,0012.12,0003.56,0002.59
2023-10-05 23:43:00,SystemResetWarning,0835.5,5.01,000.00,028.6,025.1,000.0,036.8,030.2,16.7,0000.0,0012.39,0003.55,0002.58
2023-10-05 23:44:00,SystemResetWarning,0835.4,5.01,000.00,028.5,025.1,000.0,036.8,030.1,16.6,0000.0,0011.63,0003.49,0002.57
2023-10-05 23:45:00,SystemResetWarning,0835.3,5.01,000.00,028.5,025.4,000.0,036.8,030.0,16.7,0000.0,0010.83,0003.48,0002.58
2023-10-05 23:46:00,SystemResetWarning,0835.3,5.00,000.00,028.4,025.7,000.0,036.8,030.0,16.8,0000.0,0010.91,0003.46,0002.58
2023-10-05 23:47:00,SystemResetWarning,0835.4,5.01,000.00,028.4,026.1,000.0,036.8,030.1,16.7,0000.0,0010.79,0003.43,0002.59
2023-10-05 23:48:00,SystemResetWarning,0835.3,5.00,000.00,028.5,026.4,000.0,036.8,030.2,16.7,0000.0,0010.80,0003.40,0002.61
2023-10-05 23:49:00,SystemResetWarning,0835.3,5.00,000.00,028.5,026.7,000.0,036.9,030.2,16.9,0000.0,0011.89,0003.42,0002.62
2023-10-05 23:50:00,SystemResetWarning,0835.3,4.99,000.00,028.5,027.0,000.0,036.9,030.3,17.0,0000.0,0011.95,0003.42,0002.62
2023-10-05 23:51:00,SystemResetWarning,0835.4,4.99,000.00,028.6,027.2,000.0,036.9,030.3,17.0,0000.0,0011.60,0003.41,0002.61
2023-10-05 23:52:00,SystemResetWarning,0835.4,4.99,000.00,028.6,027.4,000.0,036.9,030.4,17.0,0000.0,0011.73,0003.39,0002.62
2023-10-05 23:53:00,SystemResetWarning,0835.4,5.01,000.00,028.6,027.6,000.0,036.9,030.5,17.0,0000.0,0011.96,0003.40,0002.62
2023-10-05 23:54:00,SystemResetWarning,0835.4,5.01,000.00,028.7,027.7,000.0,037.0,030.5,17.1,0000.0,0011.38,0003.40,0002.63
2023-10-05 23:55:00,SystemResetWarning,0835.4,4.98,000.00,028.7,026.9,000.0,037.0,030.5,17.0,0000.0,0011.21,0003.42,0002.64
2023-10-05 23:56:00,SystemResetWarning,0835.4,5.00,000.00,028.7,025.3,000.0,036.9,030.3,17.0,0000.0,0011.11,0003.44,0002.63
2023-10-05 23:57:00,SystemResetWarning,0835.3,5.01,000.00,028.6,025.1,000.0,036.9,030.2,17.1,0000.0,0010.77,0003.50,0002.64
2023-10-05 23:58:00,SystemResetWarning,0835.3,5.00,000.00,028.5,025.3,000.0,036.9,030.0,17.3,0000.0,0010.49,0003.55,0002.64
2023-10-05 23:59:00,SystemResetWarning,0835.4,5.00,000.00,028.5,025.6,000.0,036.9,030.0,17.3,0000.0,0011.67,0003.57,0002.64
